GSAT0213 (GALILEO 17) (41861 NORAD) Tracking and Keplerian Element Data

This shows tracking and keplerian element data for the satellite.

Feedback or suggestion? Click here.




ElementValue
Catalog41861
NameGSAT0213 (GALILEO 17)
Epoch Orbit1042
Epoch Day202.21288462
Epoch Year2018
RAAN181.2328
Inclination54.5846
Eccentricity0.0005412
Argument of Perigee268.3143
Mean Anonmoly91.6014
Mean Motion1.70473465
Decay Rate5E-07
L11 41861U 16069C 18202.21288462 .00000050 00000-0 00000-0 0 9993
L22 41861 54.5846 181.2328 0005412 268.3143 91.6014 1.70473465 10423

Live tracking and technical data element details for GSAT0213 (GALILEO 17) (NORAD 41861). GSAT0213 (GALILEO 17) can be tracked NOW for your location showing map with azimuth and elevation plus other details from your city location.

Track the satellite on the map from your city or location and see movement details for azimuth, elevation, latitude, longitude, range, height, and movement on the map or in text.







IsCatalogInMostPopularTable: catalog: 41861, numindb: 72
Update: records affected: 1



GetName: 41861 GSAT0213 (GALILEO 17)

Hit Count: updated at: Mon, 23 Jul 2018 07:27:32 GMT